CW3081 Weather Reports


Display with metric or nautical units.
time (UTC)temp
F
wind
direction
speed
MPH
gust
MPH
rain 1hr
in
rain 24hr
in
rain mn
in
humidity
%
barometer
mb
20260502194541 62 263 0.0 2.0 0.00 0.00 0.00 47 1015.7
20260502193044 63 0 0.0 2.0 0.00 0.00 0.00 43 1015.7
20260502191541 62 290 0.0 2.0 0.00 0.00 0.00 47 1016.0
20260502190045 61 0 0.0 2.0 0.00 0.00 0.00 46 1016.2
20260502184545 63 288 0.0 4.0 0.00 0.00 0.00 44 1016.2
20260502183053 63 316 1.0 3.0 0.00 0.00 0.00 46 1016.3
20260502181541 64 321 1.0 2.0 0.00 0.00 0.00 46 1016.4
20260502163043 61 326 1.0 3.0 0.00 0.00 0.00 51 1017.2
20260502161553 60 0 0.0 1.0 0.00 0.00 0.00 50 1017.4
20260502151553 57 320 1.0 2.0 0.00 0.00 0.00 54 1017.3
20260502123043 42 0 0.0 0.0 0.00 0.00 0.00 93 1017.1
20260502121546 41 0 0.0 0.0 0.00 0.00 0.00 93 1016.9
20260502114615 0 0.0 0.0 0.00 0.00 0.00 1016.7
20260502113045 0 0.0 0.0 0.00 0.00 0.00 1016.6
20260502111549 0 0.0 0.0 0.00 0.00 0.00 1016.4
20260502110044 0 0 0.0 0.0 0.00 0.00 0.00 1016.2
20260502104550 40 0 0.0 0.0 0.00 0.00 0.00 91 1016.4
20260502103047 41 0 0.0 0.0 0.00 0.00 0.00 91 1016.3
20260502101600 41 0 0.0 0.0 0.00 0.00 0.00 90 1016.1
20260502070047 45 0 0.0 0.0 0.00 0.00 0.00 88 1016.7
20260502064614 45 0 0.0 0.0 0.00 0.00 0.00 88 1016.6
20260502063057 45 0 0.0 0.0 0.00 0.00 0.00 87 1016.6
20260502061545 45 0 0.0 0.0 0.00 0.00 0.00 86 1016.8
20260502060047 45 0 0.0 0.0 0.00 0.00 0.00 85 1016.9
20260502054548 45 0 0.0 0.0 0.00 0.00 0.00 83 1017.2
20260502053055 45 0 0.0 0.0 0.00 0.00 0.00 83 1016.9
20260502051548 46 0 0.0 0.0 0.00 0.00 0.00 83 1016.4
20260502050049 46 0 0.0 0.0 0.00 0.00 0.00 82 1016.3
20260502044552 47 0 0.0 0.0 0.00 0.00 0.00 83 1016.3
20260502043111 47 0 0.0 0.0 0.00 0.00 0.00 81 1016.4
20260502041559 47 0 0.0 0.0 0.00 0.00 0.00 83 1016.7
20260502040051 47 0 0.0 0.0 0.00 0.00 0.00 81 1016.8
20260502034545 48 0 0.0 0.0 0.00 0.00 0.00 81 1017.0
20260502033051 48 0 0.0 0.0 0.00 0.00 0.00 80 1017.2
20260502031543 49 0 0.0 0.0 0.00 0.00 0.00 76 1017.3
20260502030048 49 0 0.0 0.0 0.00 0.00 0.00 76 1017.5
20260502024541 49 0 0.0 0.0 0.00 0.00 0.00 75 1017.6
20260502023045 50 0 0.0 0.0 0.00 0.00 0.00 75 1017.1
20260502021543 50 0 0.0 0.0 0.00 0.00 0.00 75 1017.1
20260502020044 51 0 0.0 0.0 0.00 0.00 0.00 73 1016.9
20260502014541 52 0 0.0 0.0 0.00 0.00 0.00 70 1016.7
20260502013052 52 0 0.0 0.0 0.00 0.00 0.00 64 1016.5
20260502011551 53 0 0.0 0.0 0.00 0.00 0.00 61 1016.2
20260502010043 54 0 0.0 0.0 0.00 0.00 0.00 58 1016.0
20260502004544 55 0 0.0 0.0 0.00 0.00 0.00 54 1015.9
20260502003046 56 0 0.0 0.0 0.00 0.00 0.00 58 1015.6
20260502001546 57 0 0.0 0.0 0.00 0.00 0.00 54 1015.5
20260502000047 58 0 0.0 0.0 0.00 0.00 0.00 45 1015.1
20260501234550 59 0 0.0 0.0 0.00 0.00 0.00 48 1014.7
20260501233054 59 0 0.0 0.0 0.00 0.00 0.00 49 1014.4
20260501231540 59 0 0.0 1.0 0.00 0.00 0.00 45 1014.4
20260501230048 60 0 0.0 1.0 0.00 0.00 0.00 48 1014.5
20260501224548 60 0 0.0 2.0 0.00 0.00 0.00 42 1014.2
20260501223047 60 0 0.0 2.0 0.00 0.00 0.00 40 1013.9
20260501221551 60 338 0.0 3.0 0.00 0.00 0.00 43 1013.8
20260501220055 61 0 0.0 2.0 0.00 0.00 0.00 46 1013.8
20260501214548 61 0 0.0 3.0 0.00 0.00 0.00 44 1013.9
20260501213050 61 348 1.0 3.0 0.00 0.00 0.00 46 1014.1
20260501211552 61 338 1.0 3.0 0.00 0.00 0.00 48 1014.3
20260501210045 61 40 1.0 3.0 0.00 0.00 0.00 53 1014.4
20260501204600 62 285 0.0 2.0 0.00 0.00 0.00 53 1014.5
20260501203050 62 296 0.0 3.0 0.00 0.00 0.00 56 1014.6
20260501201545 62 0 0.0 2.0 0.00 0.00 0.00 56 1014.7
20260501200048 62 41 2.0 4.0 0.00 0.00 0.00 54 1014.9